Wind_Speed
14 13 12 13 14 13 10 9 8 8 7 7 6 5 4 3 4 4 3 2 1 1 1 1 1 0 0 1 2 4 4 4 5 6 6 6 6 5 5 4 4 3 2 2 1 1 2 1 0
15 13 14 15 14 11 10 9 8 8 8 7 7 6 5 5 5 5 4 2 2 1 1 2 1 0 1 0 2 3 4 4 4 4 5 5 5 5 5 4 4 3 2 1 0 1 2 2 2
14 14 16 15 12 10 9 9 9 8 8 8 8 7 7 6 5 5 5 4 2 2 2 2 2 1 1 1 1 2 4 5 5 4 4 3 3 3 3 3 3 2 2 1 1 2 2 2 2
14 16 16 13 11 10 10 10 9 8 8 8 8 8 7 7 6 6 6 5 3 2 2 2 2 1 1 1 0 2 4 5 4 3 3 2 1 1 1 1 1 1 1 1 2 2 3 2 2
15 17 16 13 11 9 9 9 9 9 8 8 8 8 8 8 7 7 6 6 5 3 3 3 3 2 1 1 1 2 3 4 4 3 3 2 1 0 1 1 0 1 1 1 1 2 2 2 2
16 15 13 11 10 9 9 9 9 10 10 9 9 9 9 9 8 7 7 7 6 5 4 4 5 4 2 2 2 2 3 3 3 2 2 1 1 0 1 1 1 1 0 1 1 1 1 2 3
14 12 12 10 9 9 10 9 9 10 10 10 10 9 9 9 8 8 9 8 8 7 6 5 5 4 4 3 2 1 2 2 2 2 1 0 1 1 1 0 0 0 1 1 1 1 2 2 3
13 12 10 8 8 9 8 9 8 9 10 10 9 9 9 9 9 9 9 9 9 8 7 6 5 5 5 4 3 3 2 1 1 1 1 1 1 0 0 1 1 1 2 2 2 2 3 3 3
9 9 9 8 7 8 8 9 9 9 9 9 9 9 9 9 9 9 9 9 9 8 8 7 6 6 5 4 4 3 3 2 1 1 1 2 1 0 1 1 1 1 2 2 2 3 3 3 3
6 6 7 7 7 7 8 9 9 9 9 9 9 9 9 10 9 9 9 9 9 9 9 8 7 6 5 4 3 3 3 3 2 2 2 2 2 2 2 2 3 3 3 3 3 4 4 4 3
5 6 5 6 6 6 7 8 9 9 9 9 9 10 9 9 10 9 10 10 9 9 9 9 8 7 5 4 4 4 4 3 3 2 2 2 3 2 2 3 3 3 3 4 3 4 4 4 4
3 3 4 5 6 6 6 8 9 9 10 10 9 9 9 8 9 10 10 10 10 10 9 10 10 9 7 5 4 4 4 4 3 3 3 3 3 2 3 3 3 3 3 4 4 4 4 4 3
3 4 4 6 6 6 7 8 10 9 10 9 9 9 9 8 9 10 10 10 10 10 10 11 11 10 9 7 6 5 5 5 4 4 4 4 3 3 4 4 3 4 4 4 5 5 4 5 5
3 4 5 7 7 6 7 9 9 9 10 9 9 9 8 8 9 10 10 11 11 10 10 11 11 10 9 8 7 7 6 6 6 5 5 5 4 4 4 4 4 5 5 4 5 5 5 5 5
4 5 7 8 8 7 8 8 8 8 9 9 9 9 8 8 9 9 10 10 11 10 10 10 10 10 9 9 8 8 7 7 7 7 7 6 6 5 5 5 5 6 6 5 5 5 5 5 4
3 5 6 8 8 8 9 9 9 9 10 10 10 9 9 8 8 8 9 9 10 10 9 9 8 8 8 8 8 8 8 8 7 7 7 7 7 6 6 6 6 6 6 6 6 5 5 5 5
2 2 4 6 8 8 8 9 9 9 9 10 10 9 8 8 8 8 8 8 8 8 8 8 7 8 8 7 7 8 8 8 8 8 8 7 7 7 7 7 7 7 7 6 6 5 6 6 5
1 1 3 5 7 6 6 7 9 10 9 10 9 9 8 7 7 7 7 7 8 8 7 7 7 7 7 7 7 7 7 7 8 8 8 7 7 8 8 8 7 7 7 7 7 6 6 6 7
3 3 4 4 6 6 6 7 7 9 10 10 9 9 8 8 7 7 7 7 7 7 6 7 6 6 6 6 6 7 7 8 8 8 8 8 8 9 9 9 8 7 7 7 7 6 6 7 8
4 6 6 5 5 6 7 7 6 7 8 10 9 9 8 8 8 7 7 7 7 7 7 6 6 6 6 6 7 8 8 9 9 9 9 9 9 10 9 8 8 8 8 8 8 7 7 8 9
6 7 7 7 7 7 8 8 7 7 8 9 10 9 8 8 8 8 8 8 7 7 7 7 7 7 7 8 8 8 9 9 9 10 10 10 11 11 10 10 9 8 8 9 9 8 8 9 10
7 8 9 8 9 8 9 10 10 8 7 9 10 10 10 10 8 8 8 8 8 7 8 8 7 7 7 8 8 8 9 9 10 11 11 12 12 11 10 10 9 9 9 9 10 9 10 10 11
10 9 9 9 8 7 9 10 11 10 8 8 10 11 11 11 9 8 8 8 8 7 8 8 8 8 8 8 9 9 9 10 10 11 12 13 13 12 11 11 11 11 10 10 11 11 11 12 12
9 8 8 10 8 7 8 10 11 11 9 9 11 12 11 10 9 9 9 9 8 8 8 8 8 9 9 9 9 9 10 11 11 12 12 13 13 13 12 12 13 13 12 12 12 12 12 12 12
9 8 9 9 8 8 9 10 12 14 12 12 13 12 11 10 10 10 9 10 9 9 9 9 9 9 10 10 10 10 11 11 11 12 13 13 13 13 14 13 13 14 14 14 13 12 13 13 13
11 10 11 10 9 10 11 11 11 13 13 12 13 12 11 11 12 10 9 10 10 10 10 10 10 10 10 10 11 11 12 12 12 13 14 15 15 15 16 16 15 15 16 15 14 13 13 14 14
13 12 12 12 11 11 11 14 12 10 10 11 11 12 11 11 12 12 10 10 11 11 11 11 11 11 11 11 11 12 12 13 13 14 15 16 16 17 17 17 17 16 16 16 16 15 14 14 15
14 13 12 12 12 12 11 12 12 10 11 12 12 11 12 13 14 13 12 12 12 13 12 12 12 12 12 12 12 13 13 14 14 15 16 16 17 17 17 17 17 17 16 17 16 16 16 16 16
15 15 15 14 14 13 11 11 11 13 14 15 15 15 13 13 13 14 13 13 14 14 14 13 13 13 13 14 14 14 14 14 15 15 16 17 18 18 18 18 18 17 16 16 16 16 17 18 18
17 16 15 15 15 14 13 13 13 13 14 15 14 14 14 14 15 15 15 14 14 14 14 14 15 15 15 15 15 15 15 15 15 16 17 18 19 19 19 19 18 16 16 17 17 17 18 19 19
Wind_Direction
81 78 75 71 59 52 49 47 42 39 37 36 30 17 9 19 21 15 356 344 353 1 9 10 21 165 88 169 168 158 151 144 147 149 157 164 169 172 177 178 190 197 199 204 251 246 226 239 286
82 80 72 65 55 43 36 41 39 39 37 34 29 22 19 17 14 9 7 14 5 18 26 25 32 16 350 13 173 154 154 151 154 152 159 164 170 180 189 198 211 219 228 242 291 277 272 282 284
83 76 66 59 46 36 36 31 33 37 35 34 30 25 23 20 14 12 13 24 40 40 22 27 15 8 2 340 201 161 154 155 155 148 148 158 168 180 193 195 213 232 231 238 321 330 294 288 281
82 73 64 56 45 33 31 26 26 29 30 30 30 26 25 24 21 27 27 35 47 41 24 12 3 343 343 304 182 152 145 149 150 144 140 140 166 198 176 189 200 195 229 264 313 305 319 303 285
80 68 61 46 38 34 32 27 28 25 25 26 28 26 27 29 32 33 30 29 34 36 24 12 16 7 341 19 118 150 146 154 153 144 134 124 107 141 189 180 139 193 269 330 315 310 311 285 272
73 65 64 53 33 29 33 33 27 22 24 26 29 28 32 39 36 34 31 29 27 34 34 22 9 5 24 42 77 135 134 147 150 130 126 133 174 221 192 191 172 165 245 330 240 245 322 315 284
69 72 57 48 28 23 27 32 28 27 25 27 31 31 31 33 37 37 35 32 29 34 37 32 33 41 54 60 68 116 145 151 147 123 122 130 269 266 226 271 182 174 27 27 19 311 310 314 298
61 64 54 37 25 25 26 23 26 32 29 28 31 31 28 35 42 39 35 34 32 33 36 39 51 53 55 67 69 85 112 141 136 94 45 359 350 156 223 308 260 328 353 355 336 315 304 306 291
62 59 52 38 26 22 19 13 18 32 34 26 27 28 30 35 39 38 35 31 34 33 35 37 40 44 56 63 61 68 79 75 68 49 13 350 355 339 329 53 8 338 331 333 326 315 307 304 287
65 51 49 36 23 22 17 13 17 23 29 26 24 25 30 28 33 38 34 31 33 33 33 34 37 39 47 60 57 55 56 57 49 47 18 8 353 347 330 327 332 331 327 323 312 302 309 318 296
55 44 46 34 24 23 19 14 19 19 18 22 23 25 29 25 32 39 36 36 35 35 33 35 40 46 54 57 57 52 45 41 32 27 14 15 21 18 8 9 353 341 341 337 339 342 338 336 320
61 29 36 31 25 19 17 11 11 11 10 16 18 22 29 29 31 37 36 36 35 35 36 40 44 51 54 56 58 41 35 39 38 36 34 23 31 10 353 3 1 354 354 354 352 346 345 351 336
55 41 29 18 16 16 13 5 3 7 4 11 14 18 30 29 28 32 33 34 36 39 39 42 46 51 54 56 52 42 35 29 30 34 24 18 12 3 2 11 8 357 344 345 346 348 350 350 351
46 38 25 18 10 16 9 3 1 2 2 5 9 13 22 24 25 29 31 33 33 36 39 44 47 50 54 53 45 38 35 32 32 31 25 17 12 11 8 5 358 353 350 342 340 343 350 352 356
61 30 13 10 6 2 353 357 2 358 1 359 4 9 16 17 18 24 28 31 35 38 38 42 46 48 49 47 44 40 39 36 34 31 28 20 16 9 0 352 351 348 346 337 333 335 341 348 350
57 32 358 352 348 341 353 354 353 350 352 353 356 4 8 12 20 23 24 27 31 34 35 37 41 40 39 37 36 34 33 34 28 28 20 13 11 7 359 354 351 346 342 337 332 328 327 332 338
49 5 342 330 334 344 350 346 346 348 351 350 350 353 360 8 12 17 20 20 22 26 28 29 32 32 32 33 31 26 24 21 20 16 13 11 8 6 4 0 353 348 345 339 331 326 326 329 331
184 213 274 311 327 336 335 334 338 340 343 342 346 346 351 356 2 7 12 12 12 16 20 18 20 22 21 20 20 19 14 11 11 8 6 6 5 359 356 353 348 346 345 338 331 326 326 328 328
203 270 274 296 320 328 319 321 328 331 335 334 341 340 344 349 355 357 360 3 2 6 10 13 14 10 8 7 8 7 4 4 4 2 357 355 355 353 353 350 347 344 346 342 334 328 321 321 320
237 269 286 297 296 299 304 302 310 320 325 329 334 336 339 342 342 347 353 354 354 356 1 3 4 3 1 1 0 360 360 359 357 355 351 349 348 346 345 343 340 342 343 338 333 327 323 320 318
237 253 257 266 274 291 298 306 316 309 319 325 328 331 333 335 334 340 350 351 348 348 351 351 349 352 353 352 354 355 353 350 349 347 345 343 342 342 340 338 340 341 338 332 327 321 319 322 322
250 253 256 261 269 274 291 297 303 303 309 318 323 324 326 330 329 336 343 342 341 342 343 346 345 344 343 343 345 346 344 341 341 340 338 337 340 340 340 339 337 332 329 326 321 319 321 323 322
246 249 257 262 256 257 275 280 286 300 297 298 311 314 319 321 328 332 332 329 329 332 336 339 341 341 338 336 335 335 336 337 337 337 337 339 337 337 334 334 330 326 324 321 320 319 320 319 318
244 251 265 269 266 257 265 275 284 285 287 291 297 302 306 310 315 322 323 323 322 325 326 327 329 333 336 335 335 333 331 331 332 332 332 333 335 333 330 328 325 324 321 317 315 317 318 318 318
249 255 266 272 272 276 270 267 273 278 276 279 282 286 292 297 304 312 315 315 317 319 323 323 323 325 329 330 330 330 329 329 328 328 328 330 331 331 329 327 325 323 318 316 314 315 315 315 317
239 243 252 264 269 275 275 266 261 269 271 279 284 285 287 291 296 299 304 307 310 313 317 320 320 318 320 323 322 324 325 327 327 326 325 325 324 323 322 321 320 318 318 316 317 314 315 313 313
240 235 245 258 258 268 271 272 265 263 266 275 278 282 283 280 287 294 300 309 307 308 311 314 314 313 314 317 317 318 319 320 320 322 323 323 323 320 317 317 316 315 315 314 313 313 310 311 310
245 249 245 243 251 258 262 277 275 267 265 270 270 274 276 278 282 288 299 303 305 305 308 311 312 312 311 313 315 314 314 315 315 317 318 319 321 320 318 316 315 314 314 313 312 311 311 310 309
248 246 245 243 247 251 260 271 276 267 268 272 275 272 274 273 277 286 291 294 299 300 302 305 307 307 308 307 309 308 310 312 313 315 317 319 319 319 318 316 314 312 311 310 310 310 311 310 308
246 243 244 248 254 255 259 261 263 266 269 268 269 272 279 281 285 287 290 294 296 297 299 301 303 304 305 304 305 304 305 308 310 311 313 315 315 317 315 315 312 312 310 308 308 308 309 308 307
Height
5895 5895 5895 5895 5894 5894 5893 5893 5891 5890 5889 5889 5888 5887 5886 5886 5886 5887 5884 5882 5882 5882 5881 5881 5881 5881 5881 5880 5879 5879 5879 5879 5879 5880 5881 5882 5883 5884 5885 5886 5887 5887 5888 5888 5889 5890 5890 5890 5891
5898 5898 5897 5896 5896 5896 5896 5895 5893 5892 5891 5890 5889 5888 5887 5886 5886 5885 5883 5883 5883 5882 5882 5882 5882 5882 5881 5881 5880 5880 5881 5881 5881 5882 5883 5884 5884 5885 5886 5887 5887 5888 5888 5889 5890 5890 5890 5890 5891
5901 5900 5898 5899 5899 5899 5898 5897 5896 5894 5893 5892 5891 5890 5889 5888 5887 5885 5884 5884 5884 5883 5883 5883 5882 5882 5882 5882 5881 5881 5882 5882 5883 5884 5884 5885 5885 5886 5886 5887 5887 5888 5889 5890 5890 5890 5891 5891 5891
5903 5902 5901 5903 5902 5902 5900 5899 5898 5897 5895 5894 5893 5892 5890 5889 5888 5886 5886 5885 5885 5884 5883 5883 5883 5883 5882 5882 5882 5883 5883 5883 5884 5885 5885 5886 5886 5886 5886 5887 5887 5888 5889 5889 5890 5890 5890 5891 5891
5903 5904 5905 5905 5904 5904 5902 5901 5900 5899 5897 5896 5894 5893 5891 5890 5889 5888 5887 5886 5885 5885 5884 5883 5884 5883 5883 5883 5883 5884 5884 5885 5885 5886 5886 5887 5887 5887 5887 5887 5888 5889 5889 5890 5890 5890 5890 5890 5890
5904 5904 5908 5907 5908 5906 5904 5903 5902 5901 5899 5897 5896 5895 5893 5891 5890 5889 5888 5887 5886 5886 5885 5884 5884 5883 5883 5884 5884 5885 5885 5886 5886 5887 5887 5887 5888 5888 5888 5888 5888 5889 5890 5890 5890 5890 5890 5891 5891
5908 5909 5910 5910 5910 5908 5907 5905 5904 5902 5901 5899 5898 5897 5895 5893 5892 5891 5890 5889 5887 5887 5886 5885 5884 5884 5884 5885 5885 5885 5886 5887 5887 5888 5888 5888 5888 5888 5889 5889 5889 5889 5890 5890 5890 5890 5890 5891 5891
5911 5912 5912 5913 5912 5911 5909 5907 5905 5904 5903 5901 5900 5898 5897 5895 5894 5892 5891 5890 5888 5887 5887 5886 5886 5885 5885 5885 5886 5886 5887 5887 5888 5888 5889 5889 5889 5889 5889 5889 5889 5890 5890 5890 5890 5890 5891 5891 5891
5915 5916 5915 5915 5914 5913 5911 5909 5907 5906 5905 5903 5901 5900 5899 5897 5895 5894 5893 5891 5890 5888 5888 5887 5886 5886 5886 5886 5886 5887 5887 5888 5888 5889 5889 5889 5889 5889 5889 5889 5890 5890 5890 5890 5890 5890 5890 5890 5890
5917 5917 5917 5917 5915 5915 5913 5911 5909 5908 5907 5905 5904 5902 5900 5899 5897 5896 5894 5892 5891 5890 5889 5888 5887 5886 5886 5887 5887 5888 5888 5888 5889 5889 5889 5890 5889 5889 5889 5890 5890 5890 5890 5890 5890 5890 5890 5890 5890
5918 5919 5918 5917 5917 5916 5914 5913 5911 5910 5909 5907 5905 5904 5902 5901 5899 5897 5896 5894 5892 5891 5890 5889 5888 5887 5887 5888 5889 5889 5889 5890 5890 5890 5890 5890 5890 5890 5890 5890 5890 5890 5890 5890 5890 5890 5890 5890 5889
5921 5920 5920 5919 5918 5917 5916 5915 5913 5912 5910 5909 5907 5905 5904 5903 5901 5899 5898 5896 5895 5893 5892 5891 5889 5888 5888 5889 5890 5891 5891 5891 5891 5891 5891 5891 5891 5891 5891 5890 5890 5890 5890 5890 5890 5890 5890 5890 5889
5922 5921 5921 5920 5919 5919 5917 5916 5915 5913 5912 5910 5909 5907 5906 5904 5903 5902 5900 5898 5897 5896 5894 5893 5892 5892 5891 5892 5892 5892 5892 5892 5892 5892 5891 5891 5891 5891 5891 5891 5891 5891 5890 5890 5890 5890 5890 5890 5889
5923 5922 5922 5921 5920 5919 5919 5918 5916 5915 5913 5912 5910 5909 5907 5906 5905 5904 5902 5901 5899 5898 5897 5896 5895 5895 5894 5894 5894 5894 5894 5893 5893 5892 5892 5892 5892 5892 5892 5892 5891 5891 5890 5890 5890 5890 5890 5889 5889
5923 5924 5923 5923 5922 5922 5920 5919 5917 5916 5914 5913 5911 5910 5909 5908 5907 5906 5904 5903 5902 5901 5900 5899 5898 5897 5897 5897 5896 5896 5896 5895 5894 5894 5894 5893 5893 5892 5892 5892 5891 5891 5890 5890 5890 5890 5890 5889 5889
5924 5925 5926 5925 5924 5923 5923 5921 5919 5917 5915 5914 5912 5911 5910 5909 5908 5907 5906 5905 5904 5903 5902 5901 5901 5900 5899 5899 5898 5898 5897 5897 5895 5895 5895 5894 5893 5893 5892 5892 5891 5891 5891 5890 5890 5890 5889 5889 5889
5925 5927 5928 5927 5925 5924 5924 5922 5920 5918 5917 5915 5914 5912 5911 5911 5910 5909 5908 5907 5906 5905 5904 5903 5902 5902 5901 5900 5900 5899 5899 5898 5897 5896 5896 5895 5894 5894 5893 5892 5891 5891 5890 5890 5889 5889 5889 5889 5888
5927 5928 5929 5927 5926 5924 5924 5923 5922 5920 5918 5917 5915 5913 5912 5911 5911 5909 5909 5908 5907 5906 5905 5904 5904 5903 5903 5902 5901 5901 5900 5899 5898 5897 5896 5896 5895 5894 5893 5892 5891 5891 5890 5889 5889 5888 5888 5888 5888
5927 5927 5928 5927 5926 5925 5925 5924 5922 5921 5919 5918 5916 5915 5913 5912 5911 5910 5909 5909 5908 5907 5906 5905 5905 5904 5904 5903 5902 5902 5901 5900 5899 5898 5897 5896 5895 5894 5893 5892 5891 5890 5889 5889 5888 5887 5887 5887 5886
5926 5927 5927 5927 5926 5925 5924 5923 5922 5920 5920 5918 5917 5916 5915 5913 5911 5910 5910 5909 5908 5908 5907 5906 5905 5905 5904 5903 5903 5902 5901 5900 5899 5898 5897 5895 5894 5894 5893 5892 5891 5890 5889 5888 5887 5886 5886 5885 5885
5925 5926 5926 5926 5924 5923 5924 5922 5921 5921 5919 5918 5917 5916 5915 5913 5911 5911 5910 5909 5909 5908 5907 5906 5906 5905 5905 5904 5903 5902 5901 5900 5899 5898 5897 5896 5894 5893 5892 5891 5890 5889 5888 5887 5886 5885 5885 5884 5883
5923 5924 5924 5923 5922 5923 5923 5921 5920 5920 5918 5918 5917 5915 5914 5913 5911 5910 5910 5909 5909 5908 5907 5906 5905 5905 5904 5904 5903 5902 5901 5900 5899 5898 5896 5895 5893 5892 5891 5890 5889 5888 5887 5886 5885 5884 5883 5882 5881
5920 5921 5921 5920 5920 5921 5922 5921 5919 5918 5918 5917 5916 5915 5913 5912 5911 5910 5909 5909 5908 5908 5907 5906 5905 5905 5904 5903 5902 5901 5900 5899 5898 5897 5895 5894 5893 5891 5890 5889 5888 5886 5885 5884 5883 5882 5881 5880 5879
5918 5919 5918 5918 5918 5919 5921 5921 5919 5917 5916 5916 5915 5914 5913 5911 5910 5909 5909 5908 5908 5907 5906 5906 5905 5904 5903 5902 5901 5900 5899 5898 5897 5896 5895 5893 5891 5890 5889 5887 5886 5885 5884 5882 5881 5880 5879 5878 5877
5916 5917 5917 5917 5917 5918 5919 5918 5918 5916 5915 5914 5913 5912 5911 5910 5909 5908 5908 5907 5907 5906 5906 5905 5904 5903 5903 5902 5900 5899 5898 5897 5896 5895 5893 5892 5890 5889 5887 5885 5884 5883 5881 5880 5879 5878 5877 5876 5874
5913 5915 5916 5917 5917 5917 5916 5915 5914 5913 5912 5912 5912 5911 5910 5909 5908 5907 5906 5906 5905 5905 5905 5904 5903 5902 5901 5900 5899 5898 5897 5896 5895 5893 5892 5890 5888 5887 5885 5883 5882 5880 5879 5877 5876 5875 5874 5873 5872
5910 5911 5913 5914 5914 5914 5914 5912 5911 5909 5908 5909 5909 5908 5908 5907 5906 5905 5904 5904 5904 5904 5903 5902 5901 5901 5900 5899 5898 5896 5895 5894 5893 5892 5890 5888 5886 5885 5883 5881 5879 5878 5876 5875 5873 5872 5871 5870 5868
5907 5908 5910 5911 5911 5911 5911 5909 5908 5907 5907 5906 5906 5905 5905 5904 5903 5903 5902 5902 5902 5901 5901 5900 5900 5899 5898 5897 5896 5895 5894 5893 5891 5890 5888 5886 5884 5882 5880 5878 5876 5875 5873 5872 5870 5869 5868 5867 5865
5905 5905 5905 5906 5907 5907 5908 5908 5905 5905 5904 5904 5903 5902 5901 5900 5900 5901 5901 5901 5900 5899 5898 5898 5897 5897 5896 5895 5894 5893 5891 5890 5889 5887 5885 5883 5881 5879 5877 5875 5873 5872 5870 5869 5867 5866 5864 5863 5862
5901 5902 5903 5904 5903 5904 5904 5906 5902 5902 5901 5900 5899 5898 5898 5898 5899 5898 5898 5897 5897 5897 5896 5895 5895 5894 5893 5892 5891 5890 5889 5887 5886 5884 5882 5880 5878 5876 5873 5871 5869 5868 5867 5866 5864 5862 5861 5859 5858